Tracking 20719 objects as of 26-May-2020
HD Live streaming from Space Station
objects crossing your sky now

INSAT 2B

Track INSAT 2B now!
INSAT 2B is classified as:


NORAD ID: 22724
Int'l Code: 1993-048B
Perigee: 35,829.9 km
Apogee: 35,921.1 km
Inclination: 13.7 °
Period: 1,440.3 minutes
Semi major axis: 42246 km
RCS: 19.9526 m2 (large)
Launch date: July 22, 1993
Source: India (IND)
Launch site: FRENCH GUIANA (FRGUI)

Second of Spain's communications satellites; 15 multi-frequency transponders
aabbcc
Your satellite tracking list
Your tracking list is empty




NASA's NSSDC Master Catalog

Two Line Element Set (TLE):
1 22724U 93048B   20144.54215997 -.00000354 +00000-0 +00000-0 0  9997
2 22724 013.6862 019.4744 0010805 151.1707 038.3597 00.99980853098429
Source of the keplerian elements: AFSPC